This is the latest recevied weather packets stored in our database for station/object K2CAT. If no packets are shown the sender has not sent any weather packets the latest 1 day(s).
| Time | Temp. | Humidity | Pressure | Rain* | Wind** | Luminosity | Snow |
|---|---|---|---|---|---|---|---|
| 1778033991 | 21.11° C | 58% | 1007.8 hPa | 0 mm | - | 0 W/m² | - |
| 1778033688 | 21.11° C | 57% | 1007.8 hPa | 0 mm | - | 0 W/m² | - |
| 1778033385 | 21.67° C | 56% | 1007.6 hPa | 0 mm | - | 0 W/m² | - |
| 1778033083 | 21.67° C | 55% | 1007.8 hPa | 0 mm | - | 0 W/m² | - |
| 1778032780 | 21.67° C | 55% | 1007.5 hPa | 0 mm | - | 0 W/m² | - |
| 1778032477 | 21.67° C | 54% | 1007.5 hPa | 0 mm | - | 0 W/m² | - |
| 1778032174 | 22.22° C | 53% | 1007.4 hPa | 0 mm | - | 0 W/m² | - |
| 1778031871 | 22.22° C | 53% | 1007.3 hPa | 0 mm | - | 0 W/m² | - |
| 1778031567 | 22.78° C | 51% | 1007.4 hPa | 0 mm | - | 0 W/m² | - |
| 1778031266 | 22.78° C | 48% | 1007.3 hPa | 0 mm | - | 0 W/m² | - |
| 1778030961 | 23.33° C | 46% | 1007.3 hPa | 0 mm | - | 0 W/m² | - |
| 1778030658 | 23.89° C | 44% | 1007.4 hPa | 0 mm | - | 0 W/m² | - |
| 1778030355 | 23.89° C | 44% | 1006.9 hPa | 0 mm | - | 0 W/m² | - |
| 1778029448 | 24.44° C | 42% | 1007 hPa | 0 mm | - | 0 W/m² | - |
| 1778028537 | 25° C | 40% | 1006.7 hPa | 0 mm | - | 0 W/m² | - |
| 1778028235 | 25° C | 41% | 1006.7 hPa | 0 mm | - | 0 W/m² | - |
| 1778027931 | 25° C | 41% | 1006.9 hPa | 0 mm | - | 0 W/m² | - |
| 1778027020 | 25° C | 40% | 1006.7 hPa | 0 mm | - | 0 W/m² | - |
| 1778026413 | 25.56° C | 40% | 1006.5 hPa | 0 mm | - | 0 W/m² | - |
| 1778026110 | 25.56° C | 40% | 1006.3 hPa | 0 mm | - | 0 W/m² | - |
| 1778022175 | 26.11° C | 37% | 1005.7 hPa | 0 mm | - | 9 W/m² | - |
| 1778021569 | 26.11° C | 37% | 1005.6 hPa | 0 mm | - | 15 W/m² | - |
| 1778018234 | 27.22° C | 35% | 1004.9 hPa | 0 mm | - | 32 W/m² | - |
| 1778017629 | 27.22° C | 35% | 1004.9 hPa | 0 mm | - | 39 W/m² | - |
| 1778016114 | 27.78° C | 32% | 1004.6 hPa | 0 mm | - | 108 W/m² | - |
* Rain latest hour (hover to see other rain measurements)
** Current wind speed in m/s (hover to see current wind gust speed)